Regional Weather Roundup
Issued by NWS Midland/Odessa, TX

Skip options and go directly to product.
Home | Oldest Version | Previous Version | Current Version | All | Text Only | Save Text | Print | Product List | Glossary Off

Skip product version selection by date and time.   

007
ASUS44 KMAF 280510
RWRMAF
MIDLAND AREA WEATHER ROUNDUP
NATIONAL WEATHER SERVICE MIDLAND TX
1200 AM CDT SUN AUG 28 2016

...IN SOUTHWEST TEXAS AND SOUTHEAST NEW MEXICO...

CITY           SKY/WX    TMP DP  RH WIND       PRES   REMARKS
ALPINE         CLOUDY    69  62  78 S5        30.22F
ANDREWS        NOT AVBL
ARTESIA        PTCLDY    75  64  69 SW7       30.07F
BIG SPRING     PTCLDY    74  65  74 SE7       30.10R
CARLSBAD       CLEAR     72  67  84 SE5       30.05R
DRYDEN           N/A     73  67  81 NE5       30.03R
FORT STOCKTON  CLEAR     73  66  78 S7        30.08R
GUAD PASS      CLOUDY    69  57  65 NE13      30.21S
HOBBS          CLEAR     73  61  64 E12       30.11S
MARFA          MOCLDY   N/A N/A N/A SE5       30.21R
MIDLAND AIRPK  CLEAR     78  63  60 SE10      30.09S
MIDLAND INTL   CLEAR     77  64  64 SE13      30.08R
ODESSA         CLEAR     77  61  57 SE15      30.09S
PECOS          CLEAR     76  65  70 SE8       30.04S
PRESIDIO       NOT AVBL
SEMINOLE       CLEAR     71  63  75 SE9       30.11S
SNYDER           N/A     73  66  81 SE6       30.09R
WINK           CLEAR     76  64  66 SE10      30.05R
$$
...OTHER STATIONS IN TEXAS...

CITY           SKY/WX    TMP DP  RH WIND       PRES   REMARKS
ABILENE        CLEAR     73  69  87 SE3       30.06R
AMARILLO       CLEAR     70  63  78 S14       30.11F
AUSTIN         PTCLDY    78  73  84 E6        30.00R
BROWNSVILLE    CLEAR     79  75  87 CALM      29.96R
CORPUS CHRISTI PTCLDY    81  75  82 SE6       29.95S
DALLAS FTW     MOCLDY    81  70  69 SE8       30.00R
DEL RIO        PTCLDY    80  70  71 NE5       29.98R
EL PASO        CLOUDY    69  65  86 N14       30.10S
HOUSTON INT    CLOUDY    75  73  93 NE9       29.98S
LUBBOCK        PTCLDY    69  64  84 SE9       30.11R
SAN ANGELO     PTCLDY    75  66  73 S6        30.06R
SAN ANTONIO    PTCLDY    79  70  74 E5        30.00S
WACO           PTCLDY    78  72  81 SE8       30.01S
WICHITA FALLS  NOT AVBL
$$
...OTHER LOCATIONS IN NEW MEXICO...

CITY           SKY/WX    TMP DP  RH WIND       PRES   REMARKS
ALAMAGORDO     CLOUDY    66  59  77 S16G28    30.16R
ALBUQUERQUE    PTCLDY    65  51  60 CALM      30.22S
CANNON AFB     CLOUDY    64  59  82 S15       30.14S
CLOVIS         CLOUDY    64  55  72 SE14      30.17R THUNDER
HOLLOMAN AFB   CLOUDY    68  59  71 S16       30.14R
ROSWELL        CLEAR     73  57  57 W5        30.07F
RUIDOSO          N/A     63  48  59 S8        30.32F
SANTA FE       CLOUDY    56  49  77 N10       30.26S
TRUTH OR CONSE LGT RAIN  67  55  65 CALM      30.18R
TUCUMCARI      PTCLDY    68  52  56 SW8       30.09F
$$

USA.gov is the U.S. government's official web portal to all federal, state and local government web resources and services.